Location: Champseau
(45.8333°N, 1.7667°E)
Time: 09:06:49
(UTC+00:00)

ITUPSAT 1 - Pass Details

Date: 29 November 2021
Orbit: 700 x 713 km, 98.6° (Epoch: 27 January)

Event Time Altitude Azimuth Distance (km) Brightness Sun altitude
Rises 05:17:47 0° 120° (ESE) 3,090 ? -19.2°
Reaches altitude 10° 05:20:39 10° 101° (ESE) 2,179 ? -18.7°
Maximum altitude 05:23:48 18° 60° (ENE) 1,713 ? -18.2°
Drops below altitude 10° 05:26:58 10° 18° (NNE) 2,194 ? -17.7°
Sets 05:29:52 0° 0° (N) 3,121 ? -17.2°
